�������l�o���
Date,Time,MP-1(��Sv/h),MP-2(��Sv/h),MP-3(��Sv/h),MP-4(��Sv/h),MP-5(��Sv/h),MP-6(��Sv/h),MP-7(��Sv/h),MP-8(��Sv/h),����,����(m/s),���J
2017/02/15,00:00,1.042,1.758,1.151,2.018,1.407,0.553,1.013,0.943,���k��,3.7,��
2017/02/15,00:10,1.044,1.762,1.151,2.019,1.404,0.554,1.013,0.944,���k��,3.8,��
2017/02/15,00:20,1.042,1.760,1.149,2.018,1.405,0.554,1.015,0.942,�k��,4.3,��
2017/02/15,00:30,1.043,1.759,1.152,2.018,1.407,0.554,1.014,0.942,�k��,4.3,��
2017/02/15,00:40,1.042,1.760,1.151,2.019,1.405,0.554,1.015,0.944,�k��,3.8,��
2017/02/15,00:50,1.042,1.759,1.151,2.018,1.407,0.554,1.015,0.942,�k��,3.2,��
2017/02/15,01:00,1.042,1.758,1.150,2.020,1.408,0.552,1.014,0.943,�k��,4.2,��
2017/02/15,01:10,1.041,1.758,1.150,2.013,1.407,0.553,1.013,0.941,�k��,4.3,��
2017/02/15,01:20,1.044,1.757,1.149,2.015,1.404,0.551,1.015,0.941,�k��,4.7,��
2017/02/15,01:30,1.040,1.758,1.148,2.018,1.405,0.553,1.014,0.943,�k��,5.2,��
2017/02/15,01:40,1.042,1.758,1.151,2.020,1.406,0.552,1.013,0.943,�k��,4.0,��
2017/02/15,01:50,1.044,1.757,1.146,2.019,1.406,0.554,1.014,0.941,�k��,4.3,��
2017/02/15,02:00,1.043,1.757,1.149,2.017,1.407,0.553,1.014,0.941,�k��,4.6,��
2017/02/15,02:10,1.044,1.759,1.149,2.018,1.403,0.552,1.011,0.943,���k��,4.2,��
2017/02/15,02:20,1.042,1.757,1.149,2.018,1.407,0.553,1.015,0.941,��,3.9,��
2017/02/15,02:30,1.042,1.759,1.151,2.014,1.406,0.551,1.014,0.942,��,4.4,��
2017/02/15,02:40,1.041,1.758,1.149,2.017,1.403,0.553,1.015,0.940,���k��,4.9,��
2017/02/15,02:50,1.040,1.756,1.149,2.018,1.403,0.550,1.014,0.943,���k��,6.0,��
2017/02/15,03:00,1.041,1.758,1.150,2.016,1.406,0.551,1.012,0.943,���k��,4.2,��
2017/02/15,03:10,1.040,1.758,1.150,2.017,1.404,0.552,1.011,0.942,���k��,3.3,��
2017/02/15,03:20,1.041,1.760,1.150,2.015,1.403,0.553,1.013,0.942,��,3.3,��
2017/02/15,03:30,1.042,1.759,1.148,2.017,1.406,0.551,1.014,0.942,���k��,2.6,��
2017/02/15,03:40,1.043,1.756,1.150,2.018,1.405,0.552,1.015,0.942,��,3.7,��
2017/02/15,03:50,1.041,1.755,1.148,2.015,1.404,0.551,1.015,0.942,���쐼,3.7,��
2017/02/15,04:00,1.043,1.757,1.146,2.019,1.403,0.553,1.013,0.939,��,4.9,��
2017/02/15,04:10,1.040,1.757,1.148,2.017,1.401,0.552,1.015,0.943,��,5.3,��
2017/02/15,04:20,1.041,1.757,1.149,2.018,1.404,0.551,1.012,0.944,���k��,6.2,��
2017/02/15,04:30,1.042,1.758,1.148,2.017,1.405,0.552,1.014,0.942,���k��,6.3,��
2017/02/15,04:40,1.042,1.760,1.149,2.016,1.402,0.553,1.014,0.942,���k��,6.9,��
2017/02/15,04:50,1.042,1.755,1.148,2.016,1.403,0.552,1.014,0.942,���k��,5.0,��
2017/02/15,05:00,1.039,1.756,1.147,2.018,1.403,0.553,1.014,0.942,���k��,5.1,��
2017/02/15,05:10,1.040,1.756,1.149,2.017,1.405,0.552,1.014,0.943,���k��,4.9,��
2017/02/15,05:20,1.042,1.757,1.148,2.016,1.404,0.553,1.012,0.942,���k��,4.6,��
2017/02/15,05:30,1.041,1.757,1.148,2.015,1.403,0.552,1.012,0.943,�k��,3.9,��
2017/02/15,05:40,1.042,1.761,1.148,2.014,1.405,0.551,1.014,0.943,�k��,3.7,��
2017/02/15,05:50,1.042,1.759,1.147,2.016,1.403,0.551,1.015,0.941,���k��,5.2,��
2017/02/15,06:00,1.041,1.758,1.149,2.016,1.399,0.552,1.013,0.942,���k��,4.9,��
2017/02/15,06:10,1.040,1.757,1.146,2.014,1.399,0.550,1.014,0.942,���k��,4.9,��
2017/02/15,06:20,1.040,1.758,1.149,2.017,1.401,0.552,1.013,0.942,�k��,6.1,��
2017/02/15,06:30,1.041,1.759,1.149,2.016,1.404,0.551,1.012,0.942,�k��,5.8,��
2017/02/15,06:40,1.042,1.757,1.151,2.014,1.401,0.552,1.013,0.943,�k��,5.6,��
2017/02/15,06:50,1.042,1.755,1.150,2.017,1.402,0.551,1.014,0.941,���k��,4.5,��
2017/02/15,07:00,1.041,1.758,1.150,2.018,1.404,0.549,1.014,0.942,���k��,5.0,��
2017/02/15,07:10,1.040,1.758,1.150,2.017,1.402,0.550,1.012,0.942,��,5.5,��
2017/02/15,07:20,1.042,1.758,1.147,2.015,1.403,0.551,1.015,0.943,���k��,6.2,��
2017/02/15,07:30,1.042,1.756,1.152,2.017,1.401,0.552,1.013,0.942,���k��,7.3,��
2017/02/15,07:40,1.042,1.759,1.150,2.018,1.401,0.551,1.014,0.942,���k��,8.0,��
2017/02/15,07:50,1.043,1.757,1.150,2.018,1.401,0.553,1.016,0.941,��,7.4,��
2017/02/15,08:00,1.045,1.757,1.166,2.020,1.403,0.552,1.016,0.944,���k��,7.3,��
2017/02/15,08:10,1.043,1.750,1.167,2.018,1.405,0.553,1.017,0.944,���k��,6.4,��
2017/02/15,08:20,1.045,1.758,1.167,2.020,1.403,0.552,1.017,0.944,���k��,5.9,��
2017/02/15,08:30,1.045,1.755,1.165,2.018,1.405,0.551,1.015,0.944,�k��,5.1,��
2017/02/15,08:40,1.046,1.750,1.167,2.021,1.407,0.554,1.018,0.945,�k��,6.3,��
2017/02/15,08:50,1.046,1.744,1.166,2.021,1.405,0.556,1.018,0.945,���k��,4.9,��
2017/02/15,09:00,1.047,1.749,1.168,2.022,1.405,0.552,1.020,0.943,�k��,4.0,��
2017/02/15,09:10,1.046,1.746,1.167,2.022,1.407,0.553,1.016,0.947,�k��,4.8,��
2017/02/15,09:20,1.046,1.744,1.169,2.021,1.408,0.554,1.020,0.945,��,4.2,��
2017/02/15,09:30,1.049,1.742,1.166,2.021,1.410,0.553,1.017,0.945,��,6.2,��
2017/02/15,09:40,1.048,1.736,1.167,2.021,1.405,0.553,1.017,0.945,��,5.5,��
2017/02/15,09:50,1.049,1.735,1.167,2.021,1.406,0.554,1.016,0.945,���k��,6.8,��
2017/02/15,10:00,1.049,1.741,1.169,2.022,1.408,0.554,1.016,0.945,���k��,5.6,��
2017/02/15,10:10,1.047,1.741,1.169,2.026,1.412,0.555,1.016,0.944,���쐼,5.4,��
2017/02/15,10:20,1.047,1.747,1.169,2.026,1.411,0.556,1.018,0.945,���k��,5.7,��
2017/02/15,10:30,1.049,1.745,1.166,2.024,1.407,0.555,1.017,0.945,���k��,2.5,��
2017/02/15,10:40,1.047,1.748,1.168,2.026,1.410,0.556,1.016,0.946,�k��,3.4,��
2017/02/15,10:50,1.050,1.751,1.167,2.026,1.414,0.555,1.017,0.947,�k,2.6,��
2017/02/15,11:00,1.049,1.728,1.166,2.026,1.414,0.556,1.016,0.946,�k,2.0,��
2017/02/15,11:10,1.049,1.743,1.169,2.024,1.415,0.556,1.017,0.947,�k�k��,3.5,��
2017/02/15,11:20,1.049,1.753,1.170,2.026,1.411,0.555,1.017,0.945,�k��,3.8,��
2017/02/15,11:30,1.050,1.753,1.168,2.027,1.412,0.557,1.015,0.945,���k��,4.0,��
2017/02/15,11:40,1.049,1.747,1.173,2.025,1.415,0.557,1.016,0.946,���k��,4.2,��
2017/02/15,11:50,1.050,1.753,1.171,2.025,1.411,0.556,1.015,0.946,���k��,4.0,��
2017/02/15,12:00,1.051,1.749,1.173,2.030,1.414,0.556,1.017,0.944,���k��,3.8,��
2017/02/15,12:10,1.053,1.754,1.175,2.024,1.411,0.556,1.015,0.946,��,3.6,��
2017/02/15,12:20,1.052,1.753,1.172,2.028,1.413,0.555,1.016,0.947,���쓌,3.3,��
2017/02/15,12:30,1.054,1.755,1.176,2.029,1.413,0.557,1.016,0.946,��,6.8,��
2017/02/15,12:40,1.056,1.756,1.175,2.030,1.417,0.556,1.018,0.947,���k��,3.5,��
2017/02/15,12:50,1.054,1.745,1.173,2.030,1.416,0.556,1.018,0.948,��,7.2,��
2017/02/15,13:00,1.054,1.760,1.172,2.029,1.413,0.556,1.016,0.947,���k��,6.3,��
2017/02/15,13:10,1.054,1.760,1.176,2.024,1.415,0.557,1.015,0.947,�k��,6.4,��
2017/02/15,13:20,1.055,1.756,1.174,2.027,1.411,0.557,1.019,0.946,���k��,7.8,��
2017/02/15,13:30,1.053,1.744,1.172,2.030,1.413,0.557,1.018,0.946,���k��,7.4,��
2017/02/15,13:40,1.054,1.724,1.173,2.031,1.416,0.557,1.019,0.945,���k��,9.0,��
2017/02/15,13:50,1.057,1.731,1.173,2.030,1.413,0.556,1.018,0.945,���k��,8.0,��
2017/02/15,14:00,1.054,1.734,1.174,2.029,1.415,0.555,1.016,0.944,���k��,8.3,��
2017/02/15,14:10,1.055,1.749,1.172,2.030,1.416,0.554,1.015,0.945,���k��,9.5,��
2017/02/15,14:20,1.052,1.735,1.171,2.030,1.416,0.555,1.017,0.945,���k��,7.4,��
2017/02/15,14:30,1.055,1.723,1.174,2.030,1.417,0.557,1.015,0.944,���k��,7.2,��
2017/02/15,14:40,1.054,1.747,1.174,2.030,1.419,0.557,1.015,0.945,��,4.9,��
2017/02/15,14:50,1.053,1.748,1.172,2.030,1.420,0.554,1.016,0.948,�k��,7.1,��
2017/02/15,15:00,1.055,1.758,1.174,2.032,1.420,0.556,1.017,0.947,���k��,7.8,��
2017/02/15,15:10,1.053,1.759,1.175,2.033,1.417,0.556,1.018,0.947,���k��,7.6,��
2017/02/15,15:20,1.056,1.755,1.174,2.031,1.420,0.556,1.016,0.948,���k��,5.8,��
2017/02/15,15:30,1.055,1.761,1.172,2.031,1.416,0.557,1.018,0.946,���k��,5.4,��
2017/02/15,15:40,1.057,1.758,1.174,2.031,1.416,0.557,1.018,0.947,�k��,3.6,��
2017/02/15,15:50,1.058,1.760,1.175,2.032,1.418,0.556,1.017,0.948,�k��,5.2,��
2017/02/15,16:00,1.054,1.759,1.175,2.033,1.416,0.556,1.019,0.947,�k��,6.0,��
2017/02/15,16:10,1.053,1.762,1.177,2.031,1.418,0.557,1.019,0.945,���k��,4.3,��
2017/02/15,16:20,1.054,1.755,1.177,2.032,1.416,0.556,1.018,0.946,���k��,6.7,��
2017/02/15,16:30,1.054,1.764,1.175,2.030,1.415,0.556,1.020,0.946,��,6.0,��
2017/02/15,16:40,1.053,1.768,1.176,2.031,1.418,0.555,1.018,0.945,��,6.8,��
2017/02/15,16:50,1.053,1.765,1.174,2.028,1.413,0.556,1.016,0.946,��,6.2,��
2017/02/15,17:00,1.051,1.763,1.177,2.031,1.414,0.556,1.015,0.945,���쐼,4.7,��
2017/02/15,17:10,1.052,1.765,1.172,2.028,1.418,0.555,1.019,0.946,��,5.7,��
2017/02/15,17:20,1.052,1.763,1.175,2.029,1.418,0.556,1.018,0.946,���쐼,6.2,��
2017/02/15,17:30,1.051,1.764,1.176,2.029,1.416,0.555,1.020,0.945,��,6.3,��
2017/02/15,17:40,1.053,1.765,1.172,2.030,1.416,0.556,1.020,0.945,��,5.1,��
2017/02/15,17:50,1.049,1.763,1.173,2.031,1.416,0.556,1.018,0.944,���쐼,6.2,��
2017/02/15,18:00,1.049,1.762,1.172,2.030,1.417,0.555,1.018,0.946,��,8.3,��
2017/02/15,18:10,1.050,1.763,1.174,2.029,1.416,0.555,1.018,0.946,��,6.7,��
2017/02/15,18:20,1.050,1.762,1.175,2.028,1.413,0.556,1.019,0.944,��,6.0,��
2017/02/15,18:30,1.050,1.762,1.172,2.029,1.416,0.555,1.018,0.945,��,3.9,��
2017/02/15,18:40,1.049,1.762,1.173,2.029,1.414,0.556,1.018,0.945,��,3.1,��
2017/02/15,18:50,1.049,1.762,1.172,2.031,1.414,0.556,1.016,0.946,���쐼,4.0,��
2017/02/15,19:00,1.049,1.763,1.172,2.029,1.417,0.553,1.017,0.946,��,4.2,��
2017/02/15,19:10,1.049,1.763,1.169,2.028,1.417,0.556,1.019,0.944,��,3.1,��
2017/02/15,19:20,1.050,1.764,1.171,2.027,1.415,0.554,1.016,0.946,��,5.2,��
2017/02/15,19:30,1.050,1.763,1.171,2.028,1.414,0.555,1.017,0.944,��,6.0,��
2017/02/15,19:40,1.050,1.764,1.173,2.029,1.413,0.555,1.019,0.944,��,5.8,��
2017/02/15,19:50,1.049,1.763,1.171,2.026,1.416,0.555,1.017,0.945,��,5.6,��
2017/02/15,20:00,1.049,1.762,1.172,2.026,1.417,0.555,1.016,0.945,��,5.2,��
2017/02/15,20:10,1.047,1.764,1.173,2.025,1.415,0.555,1.017,0.945,��,4.6,��
2017/02/15,20:20,1.049,1.761,1.170,2.026,1.416,0.555,1.017,0.946,��,5.6,��
2017/02/15,20:30,1.046,1.762,1.171,2.028,1.414,0.553,1.017,0.945,��,5.5,��
2017/02/15,20:40,1.048,1.761,1.169,2.028,1.414,0.555,1.014,0.945,��,4.8,��
2017/02/15,20:50,1.049,1.764,1.170,2.026,1.414,0.554,1.015,0.944,��,3.6,��
2017/02/15,21:00,1.046,1.760,1.173,2.027,1.415,0.553,1.016,0.943,��,4.2,��
2017/02/15,21:10,1.049,1.762,1.172,2.028,1.414,0.554,1.017,0.943,��,3.2,��
2017/02/15,21:20,1.048,1.761,1.170,2.027,1.415,0.555,1.017,0.943,���쐼,2.8,��
2017/02/15,21:30,1.047,1.761,1.171,2.023,1.414,0.555,1.016,0.943,���쐼,3.0,��
2017/02/15,21:40,1.048,1.761,1.169,2.028,1.414,0.553,1.015,0.943,���쐼,3.7,��
2017/02/15,21:50,1.048,1.760,1.168,2.026,1.413,0.555,1.017,0.945,��,3.9,��
2017/02/15,22:00,1.049,1.760,1.172,2.023,1.413,0.553,1.016,0.944,��,3.8,��
2017/02/15,22:10,1.048,1.761,1.169,2.025,1.415,0.554,1.014,0.944,��,4.6,��
2017/02/15,22:20,1.046,1.760,1.169,2.024,1.411,0.554,1.015,0.944,��,5.8,��
2017/02/15,22:30,1.046,1.760,1.171,2.024,1.414,0.554,1.015,0.944,��,5.8,��
2017/02/15,22:40,1.046,1.761,1.171,2.027,1.413,0.554,1.017,0.944,��,5.3,��
2017/02/15,22:50,1.047,1.764,1.170,2.028,1.413,0.553,1.017,0.943,��,4.5,��
2017/02/15,23:00,1.046,1.760,1.171,2.025,1.415,0.552,1.014,0.944,��,4.9,��
2017/02/15,23:10,1.046,1.762,1.169,2.023,1.415,0.552,1.017,0.943,���k��,4.5,��
2017/02/15,23:20,1.048,1.761,1.168,2.026,1.413,0.553,1.016,0.943,��,4.6,��
2017/02/15,23:30,1.045,1.760,1.170,2.025,1.412,0.554,1.016,0.944,��,3.4,��
2017/02/15,23:40,1.047,1.760,1.170,2.026,1.414,0.553,1.015,0.944,��,4.0,��
2017/02/15,23:50,1.047,1.759,1.170,2.025,1.413,0.553,1.016,0.944,��,3.5,��
